Location: Denkershausen
(51.7388°N, 10.0454°E)
Time: 15:28:59
(UTC+00:00)

Daily predictions for brighter satellites

Satellite Brightness Start Highest point End
(mag) Time Altitude Azimuth Time Altitude Azimuth Time Altitude Azimuth
NOSS 3-4 (A) 4.4 19:40:21 10° NW 19:47:07 57° SW 19:54:38 10° SSE
NOSS 3-4 (C) 4.4 19:40:28 10° NW 19:47:14 58° SW 19:54:45 10° SSE
SPOT 3 Rocket 3.6 19:43:44 10° SSE 19:48:53 84° ENE 19:54:04 10° NNW
Cosmos 1933 Rocket 3.6 19:44:53 10° NNW 19:49:15 86° W 19:53:37 10° S
SJ 16-02 1.4 19:46:23 10° SSW 19:50:49 84° ESE 19:55:18 10° NNE
Cosmos 2297 4.5 19:46:31 10° SSE 19:51:28 32° ESE 19:56:26 10° NE
Iridium 4 Rocket 4.1 19:47:49 10° SSE 19:53:33 55° E 19:59:15 10° N
Tianhe-1 3.2 19:52:40 10° SSW 19:54:08 13° S 19:55:38 10° SE
Cosmos 1151 Rocket 4.3 19:50:01 10° SSW 19:54:14 46° WNW 19:58:30 10° N
Ariane Rocket 4.0 19:53:40 10° S 19:58:32 47° W 20:03:27 10° NNW
Gbstr 26 Del rocket 4.5 19:50:58 10° WNW 19:58:49 67° SSW 20:05:34 10° SE
ATLAS 2AS CENTAUR R/B 3.0 19:53:06 10° NW 20:00:32 74° SW 20:07:22 10° SSE
Cosmos 2082 Rocket 2.8 19:55:27 10° NW 20:00:56 54° WSW 20:06:24 10° S
Cosmos 158 Rocket 4.5 19:56:44 10° NNW 20:01:31 54° WSW 20:06:21 10° S
Cosmos 1943 Rocket 3.0 19:57:24 10° SSE 20:02:10 29° ESE 20:06:56 10° NE
USA 215 3.7 19:57:07 10° ENE 20:03:36 67° NNW 20:10:05 10° W
BREEZE-M DEB (TANK) 3.8 19:52:00 10° WSW 20:04:10 86° SSE 20:07:27 10° ENE
Cosmos 1733 Rocket 4.4 20:00:43 10° N 20:04:19 25° ENE 20:07:54 10° ESE
Terra 3.0 20:00:16 10° ESE 20:04:21 29° ENE 20:08:26 10° N
Cosmos 990 Rocket 4.3 20:00:39 10° S 20:05:41 49° ESE 20:10:46 10° NNE
Cosmos 1544 3.7 20:02:25 10° N 20:05:53 40° ENE 20:09:20 10° SE
Meteor 1-11 Rocket 3.9 20:01:00 10° NNW 20:07:01 84° ENE 20:12:53 10° SSE
Cosmos 1340 Rocket 3.3 20:04:42 10° N 20:08:41 47° ENE 20:12:35 10° SSE
Cosmos 1898 Rocket 3.8 20:10:00 10° S 20:15:05 49° ESE 20:20:14 10° NNE
CZ-2C R/B 3.7 20:11:03 10° NNE 20:15:35 64° ESE 20:20:10 10° S
USA 245 2.1 20:18:58 12° SSE 20:21:06 88° WSW 20:23:45 10° NNW
ARIANE 5 R/B 2.6 20:18:53 10° SSE 20:23:11 73° ENE 20:27:32 10° N
Cosmos 1271 Rocket 3.2 20:20:12 10° SSW 20:24:10 67° WNW 20:28:10 10° N
Cosmos 2278 Rocket 3.3 20:22:46 10° SW 20:28:16 50° NW 20:33:47 10° NNE
Cosmos 1461 3.5 20:24:05 10° SSW 20:28:30 41° ESE 20:32:50 10° NE
Cosmos 1666 4.3 20:26:44 10° NNW 20:30:03 31° W 20:33:21 10° SSW
Cosmos 2369 Rocket 3.2 20:26:36 10° SSE 20:31:12 27° ESE 20:35:53 10° NE
Cosmos 1818 3.8 20:26:19 10° NW 20:31:46 64° SW 20:36:36 13° SSE
Cosmos 1536 3.0 20:32:05 10° NNW 20:36:07 70° W 20:40:06 10° S
ATLAS CENTAUR R/B 2.9 20:36:26 13° ESE 20:36:44 14° ESE 20:38:39 10° E
ERBS 3.4 20:35:14 10° WNW 20:38:12 31° SW 20:40:21 15° SSE
Cosmos 1238 Rocket 3.9 20:34:53 10° N 20:40:33 51° ENE 20:44:23 16° SE
Cosmos 2154 Rocket 4.2 20:37:48 10° NNW 20:44:07 73° W 20:50:20 10° S
SPOT 5 3.1 20:39:51 13° SSE 20:44:34 81° ENE 20:49:58 10° NNW
Cosmos 962 Rocket 4.5 20:39:15 10° N 20:45:24 75° ENE 20:50:49 14° SSE
Nadezhda 1 Rocket 4.0 20:41:04 10° S 20:47:20 88° W 20:53:33 10° N
ERS-1 Rocket 3.0 20:49:06 14° SSE 20:53:28 85° WSW 20:58:33 10° NNW
Cosmos 1975 3.6 20:51:32 10° N 20:55:19 38° ENE 20:57:45 19° SE
Cosmos 1862 Rocket 4.0 20:54:15 18° SSE 20:57:08 42° E 21:01:13 10° NNE
ISS -3.9 20:54:37 10° WSW 20:57:58 73° SSE 21:01:20 10° E
Cosmos 967 Rocket 4.5 20:56:35 10° SW 21:02:51 89° SE 21:09:13 10° NE
JB-3 4.4 21:00:12 10° N 21:04:04 76° WNW 21:07:52 10° SSW
Spot 2 Rocket 4.2 21:00:39 10° S 21:05:28 48° W 21:10:22 10° NNW
Cosmos 1937 Rocket 3.4 21:01:15 10° SSW 21:06:24 88° ESE 21:11:39 10° NNE
Cosmos 1743 3.2 21:04:15 10° NNW 21:08:04 56° W 21:11:02 16° S
Cosmos 2228 Rocket 4.4 21:04:45 10° SW 21:09:00 41° WNW 21:13:18 10° N
Lacrosse 5 3.5 21:09:47 16° ESE 21:09:47 16° ESE 21:12:34 10° E
RESURS DK-1 2.4 21:07:12 10° NNW 21:11:24 78° ENE 21:13:58 23° SE
Resurs 01 Rocket 4.1 21:11:39 10° SW 21:14:22 16° W 21:17:06 10° NW
Cosmos 1707 Rocket 3.8 21:14:45 10° SSW 21:19:03 69° WNW 21:23:30 10° N
Cosmos 2297 Rocket 4.4 21:15:32 10° NNW 21:19:38 20° NNE 21:23:43 10° ENE
Cosmos 2366 rocket 4.0 21:14:44 10° N 21:20:59 78° E 21:25:28 20° SSE
NOSS 2-1 (E) 4.5 21:20:19 10° NW 21:24:47 57° NE 21:30:12 13° ESE
Cosmos 1048 Rocket 4.0 21:20:55 10° NNW 21:26:16 78° ENE 21:29:35 23° SSE
Cosmos 1867 3.7 21:24:20 10° SSW 21:29:38 56° SE 21:35:01 10° NE
SJ 16-02 4.3 21:27:03 10° W 21:30:02 17° NW 21:33:02 10° N
Cosmos 2181 Rocket 3.9 21:25:49 17° S 21:30:43 78° E 21:36:51 10° NNE
DNEPR-1 R/B 4.3 21:25:11 10° SW 21:30:51 70° NW 21:35:35 10° NE
Meteor 2-4 Rocket 4.0 21:28:24 22° SSE 21:31:53 51° E 21:37:12 10° NNE
Meteor 1-19 Rocket 4.1 21:28:38 17° S 21:32:54 82° E 21:38:23 10° NNE
Cosmos 44 Rocket 3.5 21:29:38 10° NW 21:34:55 81° NE 21:38:15 22° SE
Cosmos 2297 4.4 21:29:50 10° SW 21:35:24 55° NW 21:41:00 10° NNE
BREEZE-M R/B 2.8 21:34:22 10° W 21:36:27 31° SSW 21:36:27 31° SSW
SL-27 R/B 2.4 21:33:24 10° NNW 21:36:45 68° ENE 21:38:02 34° SE
Cosmos 1833 4.2 21:32:05 10° NNW 21:37:53 85° WSW 21:41:31 24° SSE
COSMOS 2455 4.0 21:33:49 10° NNW 21:39:25 38° NE 21:45:00 10° ESE
Cosmos 372 Rocket 4.0 21:36:42 10° SSW 21:41:48 83° WNW 21:46:56 10° NNE
Terra 2.6 21:38:38 18° SSW 21:41:55 45° W 21:46:32 10° NNW
Cosmos 1733 Rocket 4.0 21:38:12 10° NNW 21:42:17 41° W 21:45:11 17° SSW
Cosmos 1943 Rocket 2.8 21:40:04 10° SW 21:45:37 59° NW 21:51:09 10° NNE
USA 215 3.9 21:39:53 10° E 21:46:16 57° N 21:52:38 10° WNW
Cosmos 1656 Rocket 3.6 21:46:53 19° SSW 21:50:45 65° ESE 21:56:17 10° NE
Okean 1 4.2 21:49:15 14° SW 21:52:23 45° WNW 21:56:15 10° N
Cosmos 2218 Rocket 4.3 21:47:18 10° NNW 21:53:33 65° W 21:58:01 20° S
ALOS 2 3.6 21:51:57 21° ESE 21:54:15 36° ENE 21:58:17 10° N
Cosmos 2098 4.1 21:53:12 10° N 21:56:13 86° E 21:57:07 44° SSE
Cosmos 494 Rocket 3.9 21:52:54 10° NNW 21:58:07 80° WSW 22:00:49 29° SSE
H-2A R/B 4.4 21:58:38 10° N 22:02:39 46° WNW 22:05:59 14° SW
Cosmos 1908 Rocket 3.8 21:59:56 10° NNW 22:04:23 63° W 22:06:34 29° SSW
Cosmos 2298 Rocket 4.0 22:02:56 22° SSW 22:06:22 78° ESE 22:11:41 10° NNE
Cosmos 1461 4.4 22:03:09 10° WSW 22:07:37 43° NW 22:11:59 10° NE
Nadezhda 3 Rocket 4.2 22:06:38 26° SSE 22:10:06 60° E 22:16:11 10° NNE
Cosmos 1733 4.4 22:07:10 10° N 22:10:37 31° ENE 22:12:00 24° ESE
NOSS 2-1 (C) 4.1 22:06:26 10° NW 22:11:05 78° SW 22:14:45 25° SE
Meteor 1-13 Rocket 4.4 22:10:24 29° SSE 22:13:06 56° E 22:18:31 10° NNE
Cosmos 2369 Rocket 2.6 22:09:15 10° SW 22:14:49 63° NW 22:20:29 10° NNE
ATLAS CENTAUR R/B 1.1 22:12:29 20° SW 22:14:59 82° NW 22:18:52 10° NE
NOSS 2-1 (D) 4.1 22:13:18 10° NW 22:17:58 71° SW 22:21:25 27° SSE
Sich 1 Rocket 3.9 22:16:54 10° N 22:21:25 59° ENE 22:23:17 33° SE
Okean 1-7 3.0 22:21:21 31° SSW 22:23:18 78° W 22:27:39 10° N
COSMOS 2487 2.5 22:20:46 10° NNW 22:24:10 66° ENE 22:24:59 46° SE
Cosmos 2344 4.3 22:17:34 10° NW 22:26:34 74° SW 22:35:50 20° SSE
Spot 4 3.9 22:24:53 32° S 22:27:07 72° WSW 22:31:59 10° NNW
Okean 2 Rocket 3.6 22:25:24 10° N 22:29:42 50° ENE 22:31:30 31° SE
Cosmos 2242 Rocket 3.9 22:27:54 27° SSW 22:30:15 63° WNW 22:34:44 10° N
Cosmos 1726 4.4 22:29:41 10° NNE 22:32:06 16° ENE 22:33:55 12° E
Cosmos 1400 Rocket 4.2 22:28:29 10° N 22:32:08 30° ENE 22:33:53 22° ESE
Cosmos 2151 Rocket 4.4 22:27:51 10° N 22:32:12 43° ENE 22:34:08 27° SE
Cosmos 2150 Rocket 4.2 22:28:55 20° SW 22:32:41 74° WNW 22:37:58 10° NNE
Cosmos 1125 Rocket 3.5 22:31:08 25° SSW 22:34:18 85° WNW 22:39:33 10° NNE
ISS -3.9 22:31:24 10° W 22:34:46 86° SSW 22:36:27 28° E
Cosmos 1703 Rocket 4.0 22:34:26 26° SW 22:36:43 57° WNW 22:41:07 10° N
Cosmos 1782 Rocket 4.0 22:32:51 10° NNW 22:37:11 53° W 22:38:55 32° SSW
Cosmos 1378 3.1 22:38:54 44° SSW 22:39:59 80° W 22:43:44 10° N
SAR-Lupe-2 3.9 22:41:24 10° NNE 22:44:55 50° E 22:45:30 45° SE
Cosmos 1607 4.5 22:41:27 10° WSW 22:47:52 64° NW 22:54:21 10° NE
RESURS DK-1 4.5 22:46:32 10° WNW 22:48:51 15° WSW 22:49:50 14° WSW
Cosmos 724 4.4 22:46:12 19° SW 22:50:49 85° SE 22:57:07 10° NE
Lacrosse 5 1.8 22:48:53 26° SW 22:51:43 62° SE 22:56:45 10° ENE
Cosmos 1934 Rocket 3.9 22:46:02 10° N 22:52:12 88° W 22:55:20 31° S
Cosmos 1805 3.2 22:50:48 10° NNW 22:54:42 73° W 22:55:42 47° S
Timation 2 Rocket 4.4 22:52:07 10° NNW 22:58:00 55° NE 23:02:58 15° SE
Cosmos 1066 Rocket 4.2 22:55:52 30° SSW 22:58:48 85° WNW 23:04:24 10° NNE
Cosmos 1356 Rocket 4.4 22:56:25 10° NNW 23:00:24 37° W 23:01:50 29° SW
Cosmos 2227 Rocket 2.9 22:57:24 10° NNW 23:02:56 51° NE 23:07:26 15° SE
SeaSat 1 4.1 23:00:58 10° ENE 23:04:25 19° ESE 23:05:37 17° ESE
Cosmos 2297 Rocket 2.5 22:59:10 10° NNW 23:04:50 65° NE 23:08:40 21° SE
Meteor 2-10 4.3 23:01:47 10° N 23:07:04 60° ENE 23:09:41 28° SE
MTI 3.4 23:04:12 10° NNE 23:07:14 88° WNW 23:07:24 78° SSW
Okean 3 4.1 23:06:38 30° SW 23:08:24 49° WNW 23:12:31 10° N
Cosmos 1766 3.4 23:12:21 10° NNW 23:16:16 62° W 23:17:13 45° SSW
Okean 1 Rocket 3.4 23:13:25 10° N 23:17:46 59° ENE 23:19:30 33° SE
Cosmos 1674 Rocket 3.7 23:19:33 39° SSE 23:21:03 63° E 23:25:29 10° NNE
Okean 2 4.0 23:23:28 35° SE 23:24:42 46° E 23:28:41 10° NNE
Cosmos 2221 Rocket 3.7 23:23:40 36° SSW 23:25:27 71° WNW 23:30:01 10° N
COSMOS 2455 2.9 23:19:46 10° NW 23:25:44 64° WSW 23:28:40 30° SSE
Helios 1A 4.3 23:24:53 18° ESE 23:27:22 33° ENE 23:31:08 10° N
Resurs 1-4 Rocket 4.3 23:25:38 10° NE 23:28:13 14° E 23:30:47 10° ESE
USA 215 3.3 23:22:28 10° ESE 23:29:02 81° NNE 23:35:36 10° WNW
Nimbus 7 Rocket 4.4 23:23:23 10° NNE 23:29:19 82° WNW 23:32:33 29° SSW
ALOS 2 3.8 23:29:20 26° SW 23:30:38 31° W 23:34:33 10° NNW
TSX-5 3.8 23:28:09 10° NNW 23:31:33 68° NE 23:33:15 31° SE
USA 81 4.1 23:28:51 10° N 23:34:09 73° W 23:36:30 34° S
Cosmos 1470 2.7 23:31:25 10° N 23:35:23 79° E 23:36:35 43° SSE
Cosmos 1953 4.0 23:34:16 10° N 23:37:43 27° ENE 23:40:09 16° ESE
CZ-2D R/B 4.3 23:34:53 10° NE 23:38:09 16° E 23:41:24 10° SE
Cosmos 371 Rocket 4.1 23:36:48 29° SSE 23:38:31 38° ESE 23:43:03 10° NE
Cosmos 1727 Rocket 4.2 23:36:38 29° S 23:40:02 68° E 23:46:22 10° NNE
Cosmos 2251 Rocket 3.4 23:34:53 10° NNW 23:40:09 90° WNW 23:42:53 29° SSE
EO 1 Del DPAF 3.3 23:41:19 10° NNE 23:45:02 61° ESE 23:45:57 45° SSE
SL-24 R/B 4.3 23:43:25 30° SE 23:45:25 66° ENE 23:49:39 10° N
Cosmos 1842 3.3 23:46:42 44° SSW 23:47:48 72° WNW 23:51:43 10° N
Cosmos 2263 Rocket 4.1 23:44:13 10° NNW 23:49:08 29° NE 23:54:04 10° ESE
Thor Agena Rocket 3.7 23:44:47 10° NNE 23:50:03 70° WNW 23:52:46 29° SSW
Cosmos 1455 Rocket 3.9 23:46:36 10° N 23:50:47 43° ENE 23:53:16 22° SE
Meteor 1-21 4.4 23:48:27 30° S 23:51:23 71° E 23:57:08 10° NNE
ATLAS CENTAUR R/B 3.8 23:51:34 10° WNW 23:54:27 20° NNW 23:57:28 10° NNE
